Regional Weather Roundup
Issued by NWS

Home | Current Version | Previous Version | Text Only | Print | Product List | Glossary Off
Versions: 1 2 3 4 5 6 7 8 9 10 11 12 13 14 15 16 17 18 19 20 21 22 23 24 25 26 27 28 29 30 31 32 33 34 35 36 37 38 39 40 41 42 43 44 45 46 47 48 49 50

000
ASUS43 KLSX 240707
RWRMO

WEATHER SUMMARY FOR MISSOURI
NATIONAL WEATHER SERVICE SPRINGFIELD MO
100 AM CST FRI NOV 24 2017

NOTE: "FAIR" INDICATES FEW OR NO CLOUDS BELOW 12,000 FEET WITH NO
       SIGNIFICANT WEATHER AND/OR OBSTRUCTIONS TO VISIBILITY.
       CURRENT SKY AND/OR WEATHER CONDITIONS ARE NOT AVAILABLE FOR
       CHILLICOTHE AND FARMINGTON.

MOZ001>031-035>038-043-044-053-054-240800-
...NORTHERN AND WESTERN MISSOURI...

CITY           SKY/WX    TMP DP  RH WIND       PRES   REMARKS
KANSAS CTY INT CLOUDY    54  35  48 S13       29.83F
KANSAS C DTWN  CLOUDY    55  34  45 S8        29.84F
LEE`S SUMMIT   CLOUDY    52  34  50 SW10      29.86F
ST JOSEPH      CLOUDY    49  37  63 S7        29.81F
CHILLICOTHE      N/A     49  36  61 S8        29.85F
KIRKSVILLE     CLOUDY    43  35  73 SW7       29.85F

$$
MOZ066>068-077>081-088>096-101>105-240800-
...SOUTHWEST MISSOURI...

CITY           SKY/WX    TMP DP  RH WIND       PRES   REMARKS
SPRINGFIELD    CLOUDY    39  31  72 S6        29.94F
JOPLIN         CLOUDY    52  31  44 SW12      29.94F
BRANSON        CLEAR     50  28  43 CALM      29.97F

$$
MOZ032>034-039>042-045>050-055>058-069>072-240800-
...CENTRAL MISSOURI...

CITY           SKY/WX    TMP DP  RH WIND       PRES   REMARKS
COLUMBIA       PTCLDY    40  33  76 S8        29.90F
JEFFERSON CITY PTCLDY    34  30  85 CALM      29.92F
ROLLA          PTCLDY    41  32  70 S8        29.92F
SEDALIA        CLOUDY    49  35  58 SW13      29.90F
WHITEMAN AFB   PTCLDY    43  35  73 S7        29.85F
WARRENSBURG    CLOUDY    45  34  65 S7        29.88F
OSAGE BEACH    CLEAR     36  30  79 SE3       29.93F

$$
MOZ051-052-059>065-240800-
...EAST CENTRAL MISSOURI...

CITY           SKY/WX    TMP DP  RH WIND       PRES   REMARKS
ST LOUIS INTL  CLEAR     36  30  79 CALM      29.92F
SPIRIT OF STL  CLEAR     30  28  92 CALM      29.92F
ST CHARLES     CLEAR     31  27  85 SE3       29.92F

$$
MOZ072>076-082>087-097>100-106>115-240800-
...SOUTH CENTRAL AND SOUTHEAST MISSOURI...

CITY           SKY/WX    TMP DP  RH WIND       PRES   REMARKS
CAPE GIRARDEAU CLOUDY    33  27  78 SE6       29.98F WCI  28
FARMINGTON     CLEAR     36  27  69 S3        29.95F
POPLAR BLUFF   CLEAR     31  28  89 CALM      29.99F
WEST PLAINS    CLOUDY    40  27  59 CALM      29.95F

$$



USA.gov is the U.S. government's official web portal to all federal, state and local government web resources and services.